星链-1477 (STARLINK-1477 )

导读

STARLINK-1477是美国太空探索技术公司Starlink互联网卫星星座组网卫星,于2020年6月13日发射升空。作为星链计划的组成部分,它旨在为全球提供低延迟、高速率的卫星互联网服务,目前已进入近地轨道运行,承担着为覆盖区域提供网络接入的任务。

Basic Information
目录编号:
45754
目录名称:
STARLINK-1477
国际标识:
2020-038AA
轨道中心:
EARTH
卫星名称:
星链-1477
卫星全名:
星链-1477 (STARLINK-1477 )
卫星状态:
在轨 (已飞行2284 天)
发射日期:
2020-06-13 UTC
国别 :
美国 (US)
星等 :
--
This satellite is enrolled in the Space Conjunction Data Service (SCDS) and the current flight risk assessment level is: No High Risk
Orbit Information
数据来源 国际轨道数据
星历时间: 2026-09-13T05:05:54+0800
1天前
查看轨道信息
半长轴: 6873.199km
偏心率: 0.0002632
轨道倾角: 53.023°
近地点辐角 133.306°
升交点赤经 75.877°
平近点角 226.816°
近地点: 493.252km
远地点: 496.872km
周期: 94.514分钟
每日圈数: 15.23577
Detailed Information
固有亮度:
5
最大亮度:
2.5
卫星平台:
Starlink V1.0
覆盖范围:
全球
运营商:
太空探索技术公司
运营商所在国:
美国
制造商(研发单位):
太空探索技术公司
制造商所在国:
美国
使用方式:
暂无
Satellite Introduction
星链(Starlink)计划是由太空探索技术公司(SpaceX)提出的一个巨型低轨卫星互联网星座项目,计划在2019年至2024年间在太空搭建由约1.2万颗卫星组成的“星链”网络,其中1584颗将部署在地球上空550千米处的近地轨道,并从2020年开始工作。该卫星仍在工作。
2D Orbit Map
3D Orbit Map
Orbit Altitude Analysis Chart
Orbit Inclination Analysis Chart
Orbit Comprehensive Analysis Chart
View Comprehensive Chart
Conjunction Data List
Event ID Objects TCA Miss Dist (km) Collision Risk Probability Collision Risk Index (CRI) Action
CDM_260915-094304-575405-955721
2026-09-15T
09:43:24+0000
0.945 km
远距离
9.527038E-6 低风险 0.55
CDM_260915-025904-575406-747521
2026-09-15T
02:59:13+0000
2.714 km
极远距离
1.394713E-6 低风险 0.38
Miss Distance Evolution Trend with All Objects Subscribe to Flight Safety Assessment
Collision Probability Evolution Trend with All Objects Subscribe to Flight Safety Assessment